Voltar ao catálogo

STARLINK-32330

AtivoComunicaçõesVLEO
NORAD 61850·PAYLOAD·🇺🇸 United States

Lançado Nov 7, 2024 de Cape Canaveral Space Force Station

Loading…

Próximas Passagens (próximas 24 horas)

TLE

AtualizadoSource: CelesTrak SupGP

Época: Sep 14, 2026, 21:04 UTC

1 61850C 24202F   26257.87826389  .00033376  00000+0  12089-2 0  2573
2 61850  42.9992 249.1951 0001323 266.6842 168.4161 15.27559887    16

Acompanhe STARLINK-32330 em tempo real com AllMySat

Download on the App Store